[Date Prev][Date Next][Thread Prev][Thread Next] - [Date Index][Thread Index][Author Index]

Re: [amsat-bb] Sunsat Elements



These are the elements I got off of OIG this morning,  the AOS/LOS times are 
just about the same.

SUNSAT
1 25635U 99008B   99055.86900101 -.00001659  00000-0 -44327-3 0    32
2 25635  96.4739  10.4921 0152299 248.5515 109.9393 14.40784927   208


-- John Melton  n6lyt/g0orx

        ((
      (|~~|
       `--'
       JAVA

> To: "Sarex" <sarex@AMSAT.Org>, "Amsat-bb" <amsat-bb@AMSAT.Org>
> Subject: [amsat-bb] Sunsat Elements
> MIME-Version: 1.0
> X-Priority: 3
> X-MSMail-Priority: Normal
> X-MimeOLE: Produced By Microsoft MimeOLE V4.72.3110.3
> 
> These are pre-launch elements and suitable to see what the orbit will do, 
until we hear from Norad.
> 
> SUNSAT
> 1 25635U 99008B   99054.89673604 -.00000032  00000-0  00000-0 0    28
> 2 25635  96.4728   9.7513 0152009 251.6262 106.9598 14.40792785    55
> 
> Regards
> 
> Deon ZR1DQ
> zr1dq@qsl.net
> 
> 





----
Via the sarex mailing list at AMSAT.ORG courtesy of AMSAT-NA.
To unsubscribe, send "unsubscribe sarex" to Majordomo@amsat.org



AMSAT Top AMSAT Home